CZ-4C R/B

Satellite information

Favourite Embed

Satellite Type and Status

ROCKET BODYIN ORBIT

Key statistics

Satellite CZ-4C R/B at a glance.

Uptime

4548

Days in orbit

Revolutions

≈ 13.7

Per day

Orbit

LEO

Low Earth Orbit

Inclination

63.4

Latest

Satellite identification and parameters

Extended collection of information and parameters for CZ-4C R/B.

Object identification

Identified? True

Debris? False

Object name: CZ-4C R/B

International designator: 2012-066D

Object number (NORAD): 39014

Object ID (CCSDS): 39014

Country: PEOPLES REPUBLIC OF CHINA (PRC)

Current information (Y/N): Y

RCS size: LARGE

Orbital parameters

Period: 104.991 minutes

Inclination: 63.3895 deg

SMA: 7372.167 km

Apoapsis: 1426.93 km

Periapsis: 561.133 km

RAAN: 96.0236 deg

Eccentricy: 0.0587207

Argument of periapsis: 9.2157 deg

Mean anomaly: 351.9113 deg

Mean motion: 13.71544992 rev/day

Mean motion (dot): 0.00000969 rev/day2

B* drag term: 0.0003457 1/REarth

Two-line elements (TLE)

Creation date: May 9, 2025, 2:46 a.m.

Reference frame: TEME

Reference center: EARTH

Epoch: May 8, 2025, 7:49 a.m. UTC

TLE line 0: 0 CZ-4C R/B

TLE line 1: 1 39014U 12066D 25128.32573109 .00000969 00000-0 34570-3 0 9996

TLE line 2: 2 39014 63.3895 96.0236 0587207 9.2157 351.9113 13.71544992623001

Live tracking on map

Real-time ground track for satellite CZ-4C R/B.

In-orbit conjunctions

A list of the most updated potential collisions computed for object CZ-4C R/B.

Target Orbit TCA Probability of collision Miss distance Type
COSMOS 1375 DEB LEO 2025-01-24 17:32:59 0.0001623122 983.0 (m) DEBRIS
ELECTRON KICK STAGE R/B SSO 2024-11-11 22:03:02 0.0005827774 115.0 (m) ROCKET BODY
CZ-6A DEB SSO 2024-08-19 01:59:34 0.0003242802 151.0 (m) DEBRIS

Associated space launch

CZ-4C R/B was lifted into orbit during the mission ‘Long March 4C | Yaogan 16A, Yaogan 16B, Yaogan 16C’, on board a Long March 4C space rocket.

The launch took place on Nov. 25, 2012, 4:06 a.m. from Launch Area 4 (SLS-2 / 603).

For more information about the launch, click the button.

Launch to space Long March 4C | Yaogan 16A, Yaogan 16B, Yaogan 16C
Long March 4C | Yaogan 16A, Yaogan 16B, Yaogan 16C

Agency: N/A

Status: Launch Successful

Launch date: Nov. 25, 2012, 4:06 a.m. UTC

Rocket: Long March 4C

Launch pad: Launch Area 4 (SLS-2 / 603)

Location: Jiuquan Satellite Launch Center, People's Republic of China

...

Latest news about this satellite

There are no fresh news available about this satellite. Check back as we update our databases every day.


Newsletter sign-up

Weekly statistics, charts and insights to help you stay on top of the space industry.